| time (UTC) | temp C | wind direction | speed KPH | gust KPH | rain 1hr cm | rain 24hr cm | rain mn cm | humidity % | barometer mb |
| 20260510131618 | 17 | 9 | 4.8 | 4.8 | 0.00 | 0.00 | 0.00 | 83 | 1018.1 |
| 20260510130619 | 17 | 334 | 9.7 | 14.5 | 0.00 | 0.00 | 0.00 | 85 | 1017.7 |
| 20260510125620 | 16 | 324 | 3.2 | 4.8 | 0.00 | 0.00 | 0.00 | 87 | 1017.6 |
| 20260510124622 | 16 | 338 | 1.6 | 3.2 | 0.00 | 0.00 | 0.00 | 88 | 1017.5 |
| 20260510123623 | 15 | 327 | 3.2 | 4.8 | 0.00 | 0.00 | 0.00 | 90 | 1017.4 |
| 20260510122624 | 15 | 28 | 4.8 | 8.0 | 0.00 | 0.00 | 0.00 | 91 | 1017.5 |
| 20260510121625 | 14 | 338 | 3.2 | 4.8 | 0.00 | 0.00 | 0.00 | 92 | 1017.3 |
| 20260510120626 | 14 | 0.0 | 0.0 | 0.00 | 0.00 | 0.00 | 94 | 1017.1 | |
| 20260510115621 | 13 | 0.0 | 0.0 | 0.00 | 0.00 | 0.00 | 93 | 1017.1 | |
| 20260510114616 | 13 | 0.0 | 0.0 | 0.00 | 0.00 | 0.00 | 94 | 1017.1 | |
| 20260510113649 | 13 | 0.0 | 0.0 | 0.00 | 0.00 | 0.00 | 93 | 1016.9 | |
| 20260510112630 | 13 | 135 | 1.6 | 3.2 | 0.00 | 0.00 | 0.00 | 94 | 1016.8 |
| 20260510111631 | 13 | 135 | 4.8 | 4.8 | 0.00 | 0.00 | 0.00 | 93 | 1016.7 |
| 20260510110653 | 13 | 129 | 3.2 | 3.2 | 0.00 | 0.00 | 0.00 | 93 | 1016.8 |
| 20260510105637 | 13 | 0.0 | 0.0 | 0.00 | 0.00 | 0.00 | 93 | 1016.7 | |
| 20260510104617 | 14 | 0.0 | 0.0 | 0.00 | 0.00 | 0.00 | 92 | 1016.7 | |
| 20260510103659 | 14 | 0.0 | 0.0 | 0.00 | 0.00 | 0.00 | 89 | 1016.6 | |
| 20260510102620 | 14 | 0.0 | 1.6 | 0.00 | 0.00 | 0.00 | 90 | 1016.5 | |
| 20260510101621 | 14 | 0.0 | 3.2 | 0.00 | 0.00 | 0.00 | 87 | 1016.3 | |
| 20260510100622 | 14 | 298 | 4.8 | 6.4 | 0.00 | 0.00 | 0.00 | 86 | 1016.0 |
| 20260510095624 | 15 | 0.0 | 3.2 | 0.00 | 0.00 | 0.00 | 87 | 1015.8 | |
| 20260510094619 | 15 | 0.0 | 0.0 | 0.00 | 0.00 | 0.00 | 88 | 1015.6 | |
| 20260510093626 | 15 | 135 | 3.2 | 3.2 | 0.00 | 0.00 | 0.00 | 88 | 1015.6 |
| 20260510092627 | 15 | 120 | 3.2 | 3.2 | 0.00 | 0.00 | 0.00 | 88 | 1015.6 |
| 20260510091629 | 15 | 45 | 1.6 | 3.2 | 0.00 | 0.00 | 0.00 | 84 | 1015.6 |
| 20260510090629 | 15 | 128 | 3.2 | 4.8 | 0.00 | 0.00 | 0.00 | 83 | 1016.0 |
| 20260510085631 | 15 | 301 | 3.2 | 4.8 | 0.00 | 0.00 | 0.00 | 83 | 1015.9 |
| 20260510084652 | 15 | 275 | 3.2 | 3.2 | 0.00 | 0.00 | 0.00 | 81 | 1015.9 |
| 20260510083627 | 15 | 37 | 3.2 | 3.2 | 0.00 | 0.00 | 0.00 | 82 | 1015.4 |
| 20260510082629 | 15 | 11 | 3.2 | 4.8 | 0.00 | 0.00 | 0.00 | 83 | 1015.6 |
| 20260510081650 | 14 | 351 | 4.8 | 6.4 | 0.00 | 0.00 | 0.00 | 87 | 1015.6 |
| 20260510080631 | 14 | 317 | 6.4 | 8.0 | 0.00 | 0.00 | 0.00 | 89 | 1015.4 |
| 20260510075626 | 14 | 26 | 6.4 | 9.7 | 0.00 | 0.00 | 0.00 | 89 | 1015.3 |
| 20260510074616 | 14 | 332 | 4.8 | 4.8 | 0.00 | 0.00 | 0.00 | 89 | 1015.2 |
| 20260510073617 | 14 | 0.0 | 0.0 | 0.00 | 0.00 | 0.00 | 89 | 1015.1 | |
| 20260510072619 | 14 | 0.0 | 0.0 | 0.00 | 0.00 | 0.00 | 87 | 1014.9 | |
| 20260510071619 | 13 | 45 | 1.6 | 3.2 | 0.00 | 0.00 | 0.00 | 87 | 1014.9 |
| 20260510070620 | 13 | 0.0 | 0.0 | 0.00 | 0.00 | 0.00 | 88 | 1014.9 | |
| 20260510065641 | 14 | 90 | 1.6 | 1.6 | 0.00 | 0.00 | 0.00 | 89 | 1015.1 |
| 20260510064622 | 14 | 113 | 3.2 | 3.2 | 0.00 | 0.00 | 0.00 | 88 | 1015.2 |
| 20260510063623 | 14 | 150 | 4.8 | 4.8 | 0.00 | 0.00 | 0.00 | 85 | 1015.2 |
| 20260510062644 | 15 | 0.0 | 0.0 | 0.00 | 0.00 | 0.00 | 84 | 1015.4 | |
| 20260510061625 | 15 | 0.0 | 0.0 | 0.00 | 0.00 | 0.00 | 84 | 1015.2 | |
| 20260510060626 | 15 | 0.0 | 0.0 | 0.00 | 0.00 | 0.00 | 81 | 1015.2 | |
| 20260510055627 | 15 | 0.0 | 0.0 | 0.00 | 0.00 | 0.00 | 82 | 1015.3 | |
| 20260510054623 | 15 | 0.0 | 0.0 | 0.00 | 0.00 | 0.00 | 81 | 1015.4 | |
| 20260510053619 | 16 | 0.0 | 0.0 | 0.00 | 0.00 | 0.00 | 79 | 1015.2 | |
| 20260510052631 | 16 | 0.0 | 0.0 | 0.00 | 0.00 | 0.00 | 83 | 1015.1 | |
| 20260510051652 | 16 | 129 | 3.2 | 3.2 | 0.00 | 0.00 | 0.00 | 78 | 1015.0 |
| 20260510050615 | 16 | 0.0 | 0.0 | 0.00 | 0.00 | 0.00 | 78 | 1014.9 | |
| 20260510045717 | 16 | 0.0 | 0.0 | 0.00 | 0.00 | 0.00 | 79 | 1014.8 | |
| 20260510044618 | 16 | 0.0 | 0.0 | 0.00 | 0.00 | 0.00 | 76 | 1014.7 | |
| 20260510043620 | 16 | 0.0 | 0.0 | 0.00 | 0.00 | 0.00 | 72 | 1015.0 | |
| 20260510042620 | 16 | 0.0 | 0.0 | 0.00 | 0.00 | 0.00 | 74 | 1014.7 | |
| 20260510041622 | 17 | 113 | 1.6 | 1.6 | 0.00 | 0.00 | 0.00 | 74 | 1014.5 |
| 20260510040642 | 16 | 68 | 1.6 | 1.6 | 0.00 | 0.00 | 0.00 | 74 | 1014.6 |
| 20260510035624 | 16 | 0.0 | 0.0 | 0.00 | 0.00 | 0.00 | 74 | 1014.5 | |
| 20260510034625 | 16 | 0.0 | 0.0 | 0.00 | 0.00 | 0.00 | 76 | 1014.3 | |
| 20260510033620 | 17 | 0.0 | 0.0 | 0.00 | 0.00 | 0.00 | 79 | 1014.4 | |
| 20260510032635 | 17 | 0.0 | 0.0 | 0.00 | 0.00 | 0.00 | 77 | 1014.2 | |
| 20260510031625 | 17 | 0.0 | 0.0 | 0.00 | 0.00 | 0.00 | 74 | 1014.0 | |
| 20260510030624 | 17 | 0.0 | 0.0 | 0.00 | 0.00 | 0.00 | 71 | 1013.8 | |
| 20260510025626 | 17 | 0.0 | 0.0 | 0.00 | 0.00 | 0.00 | 69 | 1013.7 | |
| 20260510024627 | 17 | 0.0 | 0.0 | 0.00 | 0.00 | 0.00 | 69 | 1013.7 | |
| 20260510023629 | 18 | 90 | 1.6 | 3.2 | 0.00 | 0.00 | 0.00 | 69 | 1013.3 |
| 20260510022629 | 18 | 0.0 | 0.0 | 0.00 | 0.00 | 0.00 | 69 | 1013.1 | |
| 20260510021650 | 18 | 0.0 | 0.0 | 0.00 | 0.00 | 0.00 | 68 | 1012.9 | |
| 20260510020631 | 19 | 90 | 1.6 | 1.6 | 0.00 | 0.00 | 0.00 | 67 | 1012.5 |
| 20260510015633 | 19 | 90 | 3.2 | 3.2 | 0.00 | 0.00 | 0.00 | 67 | 1012.5 |
| 20260510014615 | 20 | 90 | 3.2 | 3.2 | 0.00 | 0.00 | 0.00 | 67 | 1012.5 |
| 20260510013617 | 20 | 97 | 3.2 | 3.2 | 0.00 | 0.00 | 0.00 | 65 | 1012.3 |
| 20260510012617 | 21 | 96 | 3.2 | 3.2 | 0.00 | 0.00 | 0.00 | 62 | 1012.3 |
| 20260510011639 | 22 | 113 | 3.2 | 3.2 | 0.00 | 0.00 | 0.00 | 57 | 1012.0 |
| 20260510010640 | 23 | 128 | 3.2 | 3.2 | 0.00 | 0.00 | 0.00 | 53 | 1012.0 |
| 20260510005701 | 25 | 0.0 | 0.0 | 0.00 | 0.00 | 0.00 | 46 | 1011.9 | |
| 20260510004622 | 27 | 0.0 | 0.0 | 0.00 | 0.00 | 0.00 | 45 | 1011.8 | |
| 20260510003624 | 28 | 0.0 | 0.0 | 0.00 | 0.00 | 0.00 | 42 | 1011.6 | |
| 20260510002625 | 30 | 0.0 | 0.0 | 0.00 | 0.00 | 0.00 | 39 | 1011.6 | |
| 20260510001626 | 31 | 0.0 | 0.0 | 0.00 | 0.00 | 0.00 | 38 | 1011.6 | |
| 20260510000627 | 31 | 0.0 | 0.0 | 0.00 | 0.00 | 0.00 | 38 | 1011.8 | |
| 20260509235628 | 31 | 132 | 1.6 | 3.2 | 0.00 | 0.00 | 0.00 | 36 | 1011.8 |
| 20260509234649 | 32 | 135 | 0.0 | 1.6 | 0.00 | 0.00 | 0.00 | 34 | 1011.8 |
| 20260509233625 | 32 | 158 | 3.2 | 4.8 | 0.00 | 0.00 | 0.00 | 34 | 1011.6 |
| 20260509232620 | 33 | 161 | 3.2 | 4.8 | 0.00 | 0.00 | 0.00 | 34 | 1011.6 |
| 20260509231627 | 33 | 162 | 3.2 | 3.2 | 0.00 | 0.00 | 0.00 | 34 | 1011.6 |
| 20260509230628 | 33 | 214 | 3.2 | 3.2 | 0.00 | 0.00 | 0.00 | 31 | 1011.5 |
| 20260509225629 | 32 | 259 | 1.6 | 3.2 | 0.00 | 0.00 | 0.00 | 36 | 1011.5 |
| 20260509224631 | 30 | 0.0 | 0.0 | 0.00 | 0.00 | 0.00 | 35 | 1011.5 | |
| 20260509223633 | 30 | 143 | 3.2 | 4.8 | 0.00 | 0.00 | 0.00 | 40 | 1011.5 |
| 20260509222616 | 29 | 232 | 3.2 | 4.8 | 0.00 | 0.00 | 0.00 | 37 | 1011.5 |
| 20260509221617 | 28 | 98 | 6.4 | 8.0 | 0.00 | 0.00 | 0.00 | 45 | 1011.5 |
| 20260509220618 | 27 | 0.0 | 0.0 | 0.00 | 0.00 | 0.00 | 49 | 1011.5 | |
| 20260509215619 | 29 | 142 | 3.2 | 4.8 | 0.00 | 0.00 | 0.00 | 42 | 1011.6 |
| 20260509214620 | 27 | 138 | 4.8 | 6.4 | 0.00 | 0.00 | 0.00 | 42 | 1011.6 |
| 20260509213621 | 30 | 122 | 3.2 | 4.8 | 0.00 | 0.00 | 0.00 | 36 | 1011.6 |
| 20260509212621 | 28 | 68 | 1.6 | 4.8 | 0.00 | 0.00 | 0.00 | 38 | 1011.6 |
| 20260509211617 | 28 | 129 | 3.2 | 4.8 | 0.00 | 0.00 | 0.00 | 42 | 1011.6 |
| 20260509210624 | 27 | 248 | 3.2 | 4.8 | 0.00 | 0.00 | 0.00 | 44 | 1011.8 |
| 20260509205644 | 28 | 168 | 3.2 | 4.8 | 0.00 | 0.00 | 0.00 | 42 | 1011.8 |
| 20260509204620 | 28 | 121 | 4.8 | 6.4 | 0.00 | 0.00 | 0.00 | 41 | 1011.8 |
| 20260509203621 | 26 | 81 | 3.2 | 3.2 | 0.00 | 0.00 | 0.00 | 45 | 1012.0 |
| 20260509202622 | 28 | 341 | 3.2 | 4.8 | 0.00 | 0.00 | 0.00 | 42 | 1012.1 |
| 20260509201625 | 28 | 347 | 4.8 | 4.8 | 0.00 | 0.00 | 0.00 | 38 | 1012.3 |
| 20260509200625 | 27 | 76 | 6.4 | 8.0 | 0.00 | 0.00 | 0.00 | 42 | 1012.5 |
| 20260509195628 | 27 | 165 | 3.2 | 3.2 | 0.00 | 0.00 | 0.00 | 44 | 1012.5 |
| 20260509194626 | 27 | 128 | 4.8 | 6.4 | 0.00 | 0.00 | 0.00 | 43 | 1012.5 |
| 20260509193628 | 27 | 137 | 3.2 | 3.2 | 0.00 | 0.00 | 0.00 | 45 | 1012.7 |
| 20260509192623 | 28 | 305 | 6.4 | 6.4 | 0.00 | 0.00 | 0.00 | 49 | 1012.8 |
| 20260509191618 | 28 | 271 | 4.8 | 6.4 | 0.00 | 0.00 | 0.00 | 42 | 1012.7 |
| 20260509190631 | 27 | 203 | 3.2 | 4.8 | 0.00 | 0.00 | 0.00 | 45 | 1012.7 |
| 20260509185652 | 28 | 321 | 4.8 | 8.0 | 0.00 | 0.00 | 0.00 | 44 | 1012.7 |
| 20260509184636 | 28 | 267 | 4.8 | 6.4 | 0.00 | 0.00 | 0.00 | 46 | 1012.7 |
| 20260509183616 | 28 | 171 | 3.2 | 4.8 | 0.00 | 0.00 | 0.00 | 44 | 1012.7 |
| 20260509182617 | 28 | 202 | 6.4 | 8.0 | 0.00 | 0.00 | 0.00 | 46 | 1012.8 |
| 20260509181631 | 28 | 276 | 6.4 | 9.7 | 0.00 | 0.00 | 0.00 | 43 | 1012.8 |
| 20260509180632 | 28 | 107 | 8.0 | 9.7 | 0.00 | 0.00 | 0.00 | 46 | 1012.9 |
| 20260509175615 | 27 | 261 | 4.8 | 9.7 | 0.00 | 0.00 | 0.00 | 46 | 1012.9 |
| 20260509174636 | 27 | 162 | 3.2 | 6.4 | 0.00 | 0.00 | 0.00 | 48 | 1013.0 |
| 20260509173618 | 28 | 157 | 3.2 | 4.8 | 0.00 | 0.00 | 0.00 | 48 | 1013.2 |
| 20260509172619 | 27 | 270 | 6.4 | 6.4 | 0.00 | 0.00 | 0.00 | 49 | 1013.2 |
| 20260509171640 | 26 | 227 | 4.8 | 6.4 | 0.00 | 0.00 | 0.00 | 52 | 1013.2 |
| 20260509170633 | 26 | 338 | 3.2 | 6.4 | 0.00 | 0.00 | 0.00 | 54 | 1013.4 |
| 20260509165616 | 26 | 239 | 6.4 | 8.0 | 0.00 | 0.00 | 0.00 | 57 | 1013.4 |
| 20260509164617 | 26 | 140 | 4.8 | 6.4 | 0.00 | 0.00 | 0.00 | 57 | 1013.4 |
| 20260509163618 | 25 | 253 | 6.4 | 8.0 | 0.00 | 0.00 | 0.00 | 60 | 1013.4 |
| 20260509162619 | 25 | 247 | 4.8 | 6.4 | 0.00 | 0.00 | 0.00 | 64 | 1013.5 |
| 20260509161620 | 24 | 260 | 4.8 | 4.8 | 0.00 | 0.00 | 0.00 | 61 | 1013.4 |
| 20260509160621 | 24 | 239 | 4.8 | 4.8 | 0.00 | 0.00 | 0.00 | 65 | 1013.3 |
| 20260509155637 | 23 | 231 | 4.8 | 8.0 | 0.00 | 0.00 | 0.00 | 66 | 1013.4 |
| 20260509154618 | 23 | 277 | 3.2 | 6.4 | 0.00 | 0.00 | 0.00 | 70 | 1013.5 |
| 20260509153619 | 22 | 245 | 4.8 | 6.4 | 0.00 | 0.00 | 0.00 | 71 | 1013.3 |
| 20260509152621 | 22 | 288 | 3.2 | 4.8 | 0.00 | 0.00 | 0.00 | 73 | 1013.3 |
| 20260509151622 | 21 | 283 | 3.2 | 4.8 | 0.00 | 0.00 | 0.00 | 74 | 1013.4 |
| 20260509150617 | 21 | 213 | 4.8 | 6.4 | 0.00 | 0.00 | 0.00 | 77 | 1013.5 |
| 20260509145624 | 20 | 294 | 4.8 | 4.8 | 0.00 | 0.00 | 0.00 | 77 | 1013.5 |
| 20260509144625 | 20 | 278 | 4.8 | 4.8 | 0.00 | 0.00 | 0.00 | 78 | 1013.6 |
| 20260509143626 | 20 | 255 | 4.8 | 6.4 | 0.00 | 0.00 | 0.00 | 79 | 1013.4 |
| 20260509142647 | 21 | 243 | 3.2 | 4.8 | 0.00 | 0.00 | 0.00 | 72 | 1013.4 |
| 20260509141625 | 21 | 203 | 3.2 | 6.4 | 0.00 | 0.00 | 0.00 | 72 | 1013.4 |
| 20260509140644 | 21 | 248 | 3.2 | 4.8 | 0.00 | 0.00 | 0.00 | 74 | 1013.3 |
| 20260509135625 | 20 | 224 | 3.2 | 4.8 | 0.00 | 0.00 | 0.00 | 78 | 1013.3 |
| 20260509134626 | 20 | 253 | 4.8 | 6.4 | 0.00 | 0.00 | 0.00 | 77 | 1013.4 |
| 20260509133628 | 19 | 206 | 3.2 | 4.8 | 0.00 | 0.00 | 0.00 | 78 | 1013.3 |
| 20260509132629 | 19 | 259 | 3.2 | 6.4 | 0.00 | 0.00 | 0.00 | 79 | 1013.0 |